Theta_e
322 320 319 319 320 320 319 319 319 318 318 319 319 319 319 321 325 328 329 330 331 331 331 329 329 330 329 329 328 327 327 327 327 329 332 333 333 332 330 328 328 331 331 330 329 329 328 327 325 324 324 324 322 320 318 318 317 317 317 318 318 319 320 321 322 322 322 323 324 324 326 326 326 327 329 331 331 333 335 336 338 339 340 339 339
322 320 319 319 320 320 321 320 319 318 318 318 319 320 322 325 327 329 330 331 331 331 331 331 330 330 330 329 329 329 329 329 328 328 331 333 333 332 331 329 329 330 331 330 330 329 329 329 327 325 325 325 323 321 319 318 318 317 317 318 318 319 319 319 320 321 322 322 323 324 325 326 327 327 328 331 331 331 332 334 337 339 339 339 338
322 320 321 323 323 324 326 325 320 318 317 318 320 322 325 328 330 331 331 331 330 330 331 330 330 330 330 329 329 330 330 330 329 328 330 332 331 329 328 327 326 327 326 327 328 328 329 330 328 326 326 326 325 323 320 318 318 318 317 317 318 318 319 319 320 321 322 322 322 323 325 325 326 327 328 331 332 332 332 333 336 338 338 338 339
322 320 326 331 331 331 332 328 322 318 317 318 321 324 327 331 332 332 331 331 330 330 330 330 330 330 329 328 329 330 330 330 329 328 329 330 329 327 327 327 326 325 324 324 326 327 328 328 327 327 327 328 327 326 323 319 318 319 318 318 318 318 319 320 320 321 323 323 321 322 324 325 326 327 328 331 332 332 332 332 334 336 337 337 338
323 325 333 338 338 338 334 328 322 318 318 320 322 326 330 333 333 333 332 330 329 329 330 330 330 329 329 329 329 330 330 330 329 328 328 329 329 327 328 328 327 325 324 323 323 324 324 324 325 327 328 329 328 328 326 322 321 321 320 320 320 319 319 319 321 322 323 323 321 322 323 325 326 327 328 331 332 332 332 332 333 334 335 336 336
328 333 338 340 341 338 331 327 324 319 318 321 322 325 329 331 330 330 328 327 327 329 331 330 330 329 328 329 329 330 330 329 329 328 328 330 330 329 328 328 327 325 322 321 320 320 321 323 325 328 329 328 328 328 327 326 325 324 322 322 322 321 319 319 321 323 324 322 321 322 324 325 326 327 329 330 332 333 333 333 333 333 334 336 337
336 339 339 341 341 334 326 327 327 320 318 320 319 321 323 324 324 323 323 325 326 328 329 328 327 326 326 327 327 328 328 328 328 329 330 331 331 330 329 328 326 322 321 321 320 319 321 323 325 328 328 328 327 327 327 327 327 324 322 324 324 322 320 319 321 323 323 322 321 321 323 324 325 327 328 330 331 333 334 335 335 334 334 337 339
339 339 338 339 339 332 326 327 325 319 319 320 319 320 320 320 320 321 323 325 326 326 325 324 324 324 324 324 324 325 326 327 329 330 330 331 332 331 330 328 325 323 321 321 321 320 320 322 325 326 326 327 327 327 328 328 326 324 323 324 324 323 321 320 322 323 322 321 321 321 323 324 325 326 328 329 330 332 333 334 335 335 335 336 338
339 338 337 337 337 335 330 326 321 319 321 320 320 320 320 320 321 322 322 323 323 324 323 323 324 324 324 324 325 326 326 328 330 331 330 331 331 329 329 328 327 325 323 322 321 320 320 322 324 325 325 325 326 326 327 327 326 324 324 324 323 322 321 322 322 322 321 321 321 322 323 324 325 326 327 328 329 331 333 333 334 335 336 336 336
338 337 335 334 336 337 331 323 321 321 321 321 321 321 321 321 321 321 322 322 322 323 323 323 324 324 325 326 326 326 326 328 329 329 329 329 329 328 328 328 328 327 324 322 322 321 321 322 323 324 323 323 323 324 325 326 325 324 324 323 322 322 322 322 321 319 319 320 321 322 323 324 325 325 326 327 328 329 331 332 333 334 336 337 336
337 334 334 332 334 335 329 322 321 322 321 322 321 321 321 321 322 322 322 322 322 323 323 323 325 326 327 328 327 326 326 327 328 328 328 328 328 329 329 328 328 326 323 322 322 321 321 322 322 322 322 322 322 323 324 325 324 323 323 322 321 322 322 321 320 318 318 320 321 322 323 324 324 325 325 326 326 328 330 332 333 335 335 336 337
334 332 334 333 332 331 326 321 321 322 322 322 321 321 321 321 322 322 322 322 322 322 322 323 325 328 329 329 329 327 326 327 327 328 328 328 328 329 328 329 328 325 323 322 322 321 321 321 322 322 322 322 322 322 323 323 322 322 322 321 321 322 322 320 318 318 319 320 320 322 323 324 324 324 325 325 326 327 328 330 332 334 335 336 337
333 333 336 333 329 327 324 322 322 322 322 322 322 322 321 321 322 322 322 323 323 322 322 323 326 328 330 330 329 327 327 328 327 327 328 328 327 328 328 328 328 326 324 322 322 322 321 321 321 320 320 321 321 321 321 321 320 321 321 321 322 322 321 319 318 318 319 320 321 322 323 324 324 324 324 325 325 326 327 329 331 333 334 335 336
332 334 335 333 329 326 323 322 323 323 323 323 322 322 322 322 323 323 323 324 324 324 323 323 326 328 330 330 328 327 328 328 328 328 328 327 327 327 327 327 327 327 324 322 322 322 322 321 321 320 319 320 321 321 320 320 320 321 321 322 322 322 321 319 318 317 318 319 321 322 324 325 325 325 325 326 326 326 327 328 330 332 333 334 334
332 333 335 335 333 327 322 322 323 323 323 323 323 323 323 323 323 323 323 324 325 326 325 324 325 327 329 329 328 327 327 328 328 327 327 327 326 325 325 326 327 327 324 321 321 322 322 322 322 321 319 320 321 321 320 320 320 321 321 322 323 323 321 319 317 316 317 318 319 322 324 325 325 326 326 326 327 327 327 327 329 331 332 334 334
333 335 336 336 333 327 323 322 323 323 323 323 322 323 324 323 324 324 324 325 326 327 327 326 326 327 329 330 329 328 328 328 328 328 327 326 325 324 324 325 326 326 325 322 321 321 322 322 322 322 320 320 322 322 320 319 320 321 321 322 323 323 321 319 317 316 316 317 319 322 323 323 323 324 325 327 327 327 328 328 328 329 331 333 334
334 336 337 335 333 331 328 325 323 323 323 323 322 323 323 324 324 325 326 326 327 328 328 328 328 329 329 330 329 329 328 328 328 328 327 326 325 325 325 325 326 327 326 323 321 320 321 322 322 322 321 320 321 321 319 320 321 321 321 322 324 324 321 319 318 317 317 317 318 320 320 320 320 321 323 325 327 328 329 329 329 329 330 332 334
335 336 335 334 333 333 332 329 327 324 323 323 323 323 323 323 324 326 327 328 328 329 330 330 329 329 329 329 329 328 328 328 328 327 327 326 325 325 324 325 326 326 324 322 321 320 321 322 322 322 321 320 319 318 319 320 321 321 322 323 324 324 322 320 318 317 318 318 318 318 318 318 319 320 322 324 326 328 329 331 331 330 330 332 334
335 335 335 335 334 333 332 332 330 328 326 326 325 324 324 324 326 327 328 329 330 331 331 331 330 330 329 328 328 328 327 327 327 328 328 327 326 325 324 325 326 325 322 321 321 321 320 321 323 322 321 319 317 318 320 322 322 322 323 324 324 324 323 320 319 319 319 318 318 317 317 318 319 320 321 323 325 328 330 332 332 331 330 331 334
334 334 335 335 335 334 334 335 335 333 331 330 328 328 327 327 329 330 330 332 332 332 332 332 331 331 329 328 328 328 328 328 327 327 328 327 326 324 324 325 325 323 322 321 321 321 321 321 322 322 321 318 317 319 322 323 323 323 323 324 325 324 323 321 321 321 319 318 317 317 317 318 320 321 322 323 324 327 331 333 333 333 331 331 333
334 335 336 336 336 336 337 337 338 337 336 335 334 334 333 333 334 334 334 334 333 332 333 332 332 331 330 329 329 328 328 328 327 326 327 327 326 325 325 326 325 323 322 322 321 321 321 321 322 322 320 318 318 320 322 324 324 324 324 324 324 324 324 322 321 321 319 318 318 317 316 318 320 322 322 322 323 326 330 333 334 334 332 331 333
338 338 339 339 339 340 340 341 340 340 339 338 337 337 337 336 336 335 335 335 333 332 332 332 332 331 330 330 329 329 328 328 327 325 326 326 325 325 325 325 325 324 323 321 320 320 321 321 321 321 320 319 320 323 324 324 324 324 324 323 323 323 324 323 321 320 319 318 317 317 316 317 320 321 322 322 322 325 329 332 334 334 332 331 332
344 344 344 344 343 342 342 342 341 340 339 338 336 335 334 334 335 334 333 334 333 331 332 332 331 331 331 330 330 329 329 329 327 325 326 326 325 324 324 325 325 325 322 319 318 320 321 321 321 321 320 320 322 324 324 324 324 324 323 322 322 323 323 323 322 320 320 318 317 316 316 316 319 321 321 321 321 323 328 332 334 334 333 331 331
341 340 341 344 345 345 343 342 341 340 339 337 336 335 333 333 334 333 333 334 331 330 331 332 331 331 330 329 329 330 330 328 326 326 326 326 325 324 324 325 324 322 319 317 318 319 320 320 321 321 321 322 324 324 324 324 324 323 322 322 322 322 323 324 322 321 321 319 317 316 316 316 318 321 322 321 321 322 326 331 334 335 335 333 332
327 327 329 333 338 340 342 342 341 341 340 338 337 336 335 334 334 334 333 333 331 329 329 330 331 332 329 327 328 330 330 328 326 326 326 326 325 324 324 324 322 319 317 317 318 319 320 321 321 321 322 324 324 324 324 324 323 322 322 322 322 323 323 323 323 322 321 319 317 316 316 316 318 321 322 320 320 321 325 330 334 336 336 335 333
324 324 326 329 331 333 336 339 341 341 341 340 338 336 335 335 334 333 332 332 331 327 324 326 330 332 329 326 328 330 329 328 326 326 325 325 324 324 324 323 320 318 317 317 318 319 320 321 321 322 323 323 323 323 323 322 322 321 322 322 322 322 322 322 322 322 321 319 317 316 316 316 318 320 321 320 319 320 323 328 333 336 337 337 336
325 325 327 330 330 330 331 334 337 339 339 338 335 333 333 333 333 333 331 331 330 327 325 326 330 331 329 328 328 329 328 327 327 326 325 325 325 325 324 322 319 317 316 317 318 319 320 321 322 323 323 322 323 323 322 321 321 321 321 321 321 320 321 321 323 322 320 319 318 316 316 316 317 318 320 320 319 319 320 325 331 336 337 338 338
326 326 327 329 327 326 327 331 333 335 334 333 332 331 331 333 333 333 331 330 329 329 329 330 331 331 329 328 328 328 327 326 327 326 325 325 326 324 322 321 319 316 316 317 318 319 320 321 323 323 322 322 322 322 321 321 321 320 320 320 320 320 320 321 322 322 321 320 318 317 316 316 316 317 319 321 320 318 318 322 328 334 337 338 338
323 323 324 324 323 324 327 330 332 332 332 332 331 330 330 331 332 332 331 329 328 328 329 330 330 329 329 327 327 327 327 326 325 325 325 326 325 323 321 320 317 314 314 316 318 320 321 322 323 322 322 321 321 320 320 320 320 319 319 319 319 319 320 320 321 322 322 320 319 318 316 316 316 316 317 319 321 319 317 318 322 328 334 337 336
319 320 320 322 325 328 331 332 332 332 331 331 330 330 330 330 330 330 330 329 329 329 328 329 328 328 328 327 326 327 326 324 324 325 325 325 323 321 321 318 314 312 315 318 320 321 322 322 322 322 321 321 320 320 319 319 319 319 319 319 318 319 319 320 320 321 321 321 320 319 318 316 316 316 316 317 320 319 316 316 318 321 324 328 330
318 318 319 321 325 329 330 331 331 331 331 331 331 330 330 329 329 328 328 328 328 328 328 328 328 328 328 327 326 325 324 323 322 323 323 322 321 320 318 314 311 313 317 321 322 322 321 321 321 321 320 320 319 319 318 318 318 318 318 318 318 318 318 319 320 320 321 321 321 320 319 317 316 316 316 316 318 320 317 315 316 318 319 320 322
318 318 319 322 325 327 329 330 331 330 330 331 331 330 330 329 328 328 327 327 328 327 326 326 326 327 327 326 323 322 322 321 321 322 321 320 318 316 313 312 313 316 319 321 321 320 320 320 320 320 319 318 318 318 317 317 317 318 318 317 317 317 317 318 319 319 320 321 321 321 321 320 318 317 316 316 317 319 319 317 315 316 318 318 319
319 319 320 320 321 323 326 328 328 329 330 330 329 329 329 329 328 327 326 326 326 326 325 325 325 325 325 324 322 321 321 320 320 320 319 319 317 314 312 314 317 318 319 320 319 319 319 319 318 318 318 317 317 317 316 316 316 316 316 316 315 315 316 316 317 318 319 320 321 321 321 321 320 319 318 317 316 317 319 320 318 316 317 318 318
321 321 322 323 324 325 325 326 326 328 329 329 328 328 328 327 327 326 325 325 325 325 326 325 324 324 323 322 321 321 320 320 320 319 318 318 316 313 313 317 319 318 318 319 318 318 318 317 316 316 316 316 316 315 315 315 315 315 315 315 314 314 315 315 316 317 318 319 320 320 321 321 321 320 320 319 317 315 317 319 320 317 316 317 318
322 323 325 326 327 328 328 328 327 328 328 328 328 328 327 327 326 326 325 325 325 326 326 325 324 323 322 321 321 320 319 318 317 315 314 313 313 313 315 319 320 319 318 317 317 317 316 315 314 315 315 314 314 314 314 314 314 313 313 313 313 313 313 314 314 315 316 317 318 319 320 320 320 321 321 319 317 315 316 318 319 320 318 317 318
325 326 327 328 328 329 329 329 328 328 328 328 328 328 327 327 326 325 325 324 324 325 325 325 324 323 322 321 320 319 317 315 313 313 312 312 313 315 317 318 319 318 316 316 315 314 314 313 313 314 314 313 312 312 312 312 312 311 311 311 311 311 311 311 312 312 313 315 316 317 318 319 319 320 321 320 318 317 317 316 317 319 320 319 318
327 328 328 329 329 329 328 328 328 327 327 327 327 327 327 326 324 324 323 323 323 324 324 324 323 322 321 320 319 316 314 313 313 314 314 313 313 315 315 316 317 316 315 314 313 312 311 312 312 313 313 312 311 311 311 311 311 310 309 309 309 309 309 309 309 309 310 311 313 314 316 317 318 318 319 320 320 320 319 318 316 316 318 318 318
325 326 326 327 328 328 327 327 326 325 324 324 325 325 325 324 323 323 323 323 324 325 324 324 323 321 321 320 318 316 314 314 314 314 314 313 313 313 313 312 312 312 312 312 311 310 310 310 311 311 311 311 310 310 310 310 309 309 308 308 308 307 307 307 307 307 307 308 309 311 312 314 316 316 317 318 319 319 320 320 319 317 317 317 319
324 325 326 326 327 327 326 325 324 324 323 323 323 323 323 323 323 323 323 322 322 323 323 323 322 321 320 318 316 315 315 314 314 314 314 313 313 312 311 310 309 309 308 309 310 309 309 309 309 309 309 309 309 309 308 308 308 307 307 307 307 307 307 306 306 306 306 306 306 308 309 311 312 314 315 316 316 317 318 320 320 319 320 320 321
326 327 327 327 327 326 325 325 324 323 323 323 323 323 323 323 323 323 322 321 321 321 322 322 321 320 318 315 314 313 313 313 313 313 313 312 311 311 309 308 308 308 308 308 309 309 308 309 308 307 307 307 307 307 307 307 307 306 306 306 306 306 305 305 304 304 304 304 304 305 306 307 308 310 312 314 314 314 315 317 318 319 321 322 322
326 327 327 327 326 325 325 324 323 323 322 322 322 323 323 323 322 322 321 320 319 319 319 320 319 318 316 314 313 311 311 312 312 312 311 311 310 309 308 307 308 308 307 307 308 308 308 308 307 306 306 306 306 307 307 307 306 304 303 303 303 302 302 302 302 301 301 302 302 303 303 303 304 306 308 310 311 312 313 314 316 317 319 321 322
325 325 325 325 325 324 324 323 323 322 322 322 322 322 322 321 321 321 320 319 318 317 317 317 316 315 314 313 311 310 311 312 311 310 310 309 308 308 307 306 306 307 307 307 307 306 306 306 307 306 305 305 306 306 306 305 303 301 300 300 300 299 299 299 299 298 299 300 300 301 301 300 299 301 303 305 307 308 309 311 313 314 317 319 320
324 325 324 324 324 324 323 322 322 321 321 321 321 321 320 319 318 318 319 318 317 317 318 317 315 314 313 312 310 310 310 311 310 309 308 307 307 307 306 305 305 306 307 306 306 305 305 305 305 305 304 305 306 305 304 302 300 298 297 297 297 296 296 297 296 296 297 298 299 299 299 297 297 298 299 300 302 303 305 307 309 311 313 315 318
324 323 323 323 323 322 322 322 321 321 321 321 320 319 319 319 318 318 318 318 316 316 316 314 313 313 312 311 309 308 309 309 309 308 307 307 306 306 305 304 305 306 306 305 304 303 303 304 304 303 303 304 304 302 299 298 297 295 294 294 294 294 294 294 294 294 295 296 297 297 297 296 296 296 296 298 299 300 301 302 303 306 309 312 315
322 322 321 321 321 320 320 320 320 319 318 319 318 318 317 318 318 317 317 317 315 313 312 312 312 312 311 310 309 308 308 307 307 307 307 306 305 304 304 304 305 305 304 304 304 303 302 302 302 301 301 301 300 298 295 295 294 293 293 294 294 294 294 294 294 294 294 295 296 296 295 295 295 295 295 296 298 299 299 299 299 301 305 309 313
321 321 321 321 320 320 319 319 318 317 316 316 316 315 315 316 315 315 314 314 313 312 312 312 312 311 311 310 309 308 308 306 305 305 305 304 304 304 304 304 304 304 303 303 304 303 302 300 299 299 299 298 296 294 293 293 293 293 293 294 294 294 294 294 294 294 295 295 295 296 295 295 295 295 295 296 297 299 299 298 298 299 303 307 311
320 320 320 320 319 319 319 318 318 316 315 315 315 315 314 313 313 313 313 313 312 312 312 311 311 311 310 309 309 308 307 305 304 305 304 304 303 304 304 304 304 303 303 303 302 301 299 298 297 296 296 295 294 293 293 293 293 294 294 294 293 294 294 293 293 294 294 294 295 295 296 295 294 294 295 296 297 298 299 298 298 299 301 305 308
318 318 318 318 317 316 317 318 317 316 314 313 313 313 313 313 312 312 313 313 312 311 311 310 310 310 309 309 309 308 307 306 305 305 304 304 303 303 304 304 303 303 303 302 300 298 296 295 294 294 294 294 293 293 293 293 293 294 294 294 293 293 293 293 293 293 294 294 294 295 295 295 295 294 294 295 296 297 298 298 298 298 300 302 305
317 316 316 316 315 314 315 316 315 314 313 312 312 312 312 312 312 311 311 311 311 310 309 309 309 309 309 308 308 307 306 306 306 305 305 304 303 303 303 303 304 303 302 300 297 295 294 293 292 293 293 294 293 293 293 293 293 293 293 293 293 294 294 293 293 293 294 294 294 294 295 295 295 294 294 295 296 297 297 297 297 297 298 299 301
315 315 315 315 315 315 315 315 315 314 313 313 313 312 312 312 311 311 310 310 310 309 309 308 309 309 309 308 307 307 306 306 306 305 305 305 304 304 303 302 302 301 301 298 295 294 294 294 293 293 294 294 294 294 294 293 292 292 292 293 293 293 293 293 293 293 294 294 294 294 295 295 294 295 294 294 295 296 297 296 297 297 297 298 299
312 312 313 313 313 313 313 313 313 313 313 313 313 312 312 312 311 310 310 309 309 308 308 308 308 308 308 307 307 307 307 306 305 305 305 304 304 304 303 301 299 298 298 297 296 295 295 295 295 295 294 295 295 295 295 294 293 292 292 292 292 292 292 292 293 293 293 294 294 294 294 294 294 294 294 294 295 295 295 295 296 297 298 299 299
Wind_Speed
16 15 13 11 10 9 9 8 8 8 7 6 6 5 4 3 2 3 5 6 7 8 10 12 14 13 12 12 13 13 13 13 12 11 10 11 12 12 11 11 11 12 11 12 13 13 12 12 11 11 11 12 12 13 14 16 17 19 20 21 22 23 25 27 31 36 36 34 34 35 34 34 35 34 32 31 31 31 32 33 30 28 29 29 30
17 15 13 11 11 10 9 8 8 7 6 6 5 4 3 1 0 3 6 8 9 10 10 13 14 13 12 13 14 15 16 16 16 14 11 11 12 12 13 13 13 14 14 14 14 14 13 13 13 13 12 12 12 14 16 16 17 19 20 21 22 24 25 28 32 35 38 37 37 37 34 32 33 34 32 31 30 29 31 34 33 30 29 30 31
18 16 13 11 11 10 9 9 8 7 6 6 5 3 2 1 3 5 8 9 10 10 11 12 13 12 11 12 14 15 16 17 19 16 12 12 12 13 13 14 15 16 16 16 15 15 14 15 16 14 13 13 14 15 17 17 18 19 20 22 24 25 26 29 32 34 36 37 38 39 37 34 32 32 31 30 30 28 29 33 35 34 32 31 31
20 17 14 11 12 12 10 9 9 7 6 6 5 4 3 4 6 8 9 8 9 10 10 10 10 10 11 12 13 15 16 17 20 18 13 12 13 13 13 13 14 16 16 16 15 15 15 16 17 16 15 16 17 18 18 18 19 20 22 23 25 27 28 29 32 33 33 35 39 39 37 35 34 32 30 30 30 29 29 31 35 37 37 35 33
21 18 14 12 13 12 9 8 9 8 7 6 5 4 4 6 9 11 11 12 12 12 11 12 12 11 11 12 12 13 14 17 20 19 14 11 11 11 11 13 14 15 16 15 15 16 16 16 16 15 15 17 19 20 20 20 22 24 25 26 26 28 30 31 33 34 33 35 39 40 35 33 34 31 29 29 31 30 30 30 32 36 37 37 37
21 18 14 13 15 12 8 10 11 8 6 5 4 5 7 10 13 14 15 16 16 14 14 15 13 12 11 12 12 14 16 19 20 18 14 12 10 10 11 13 15 16 16 17 17 17 17 16 15 14 16 19 20 21 21 22 24 26 27 27 27 28 30 33 34 35 34 36 39 39 36 32 32 30 27 27 29 29 29 29 31 33 36 36 36
22 17 14 16 18 13 8 11 12 8 5 5 5 6 7 9 11 12 13 13 13 14 16 15 14 13 14 14 15 17 18 19 16 14 15 14 11 11 12 13 16 17 17 18 18 17 17 16 15 15 17 19 20 20 21 22 25 26 26 26 26 27 30 33 35 35 36 38 39 38 37 33 30 29 26 25 26 28 28 29 31 32 34 36 36
22 18 17 19 21 16 10 10 11 8 6 7 7 6 7 8 10 10 11 11 11 12 13 12 13 13 14 14 13 14 14 12 11 12 14 13 11 11 12 13 15 18 19 18 17 17 16 14 14 15 17 18 19 20 21 23 24 25 24 24 25 27 29 32 35 36 37 38 38 38 37 34 30 28 26 25 26 28 28 29 31 33 34 36 37
24 21 20 20 20 17 12 10 10 9 8 9 8 8 8 8 9 9 9 9 9 10 10 11 12 13 12 12 12 11 10 9 10 13 13 11 11 12 12 13 16 18 19 18 17 17 15 14 14 16 17 18 19 20 21 22 23 23 23 24 25 26 29 32 34 35 36 37 37 37 35 34 32 29 27 26 26 28 27 28 31 33 34 36 37
26 23 19 16 18 19 15 14 12 10 10 10 9 9 9 9 8 8 8 9 9 9 10 11 11 11 12 12 12 10 9 9 10 11 10 10 10 11 12 13 16 18 18 17 18 17 15 14 15 17 18 18 18 18 20 21 22 22 22 24 25 26 29 30 31 34 36 36 37 35 34 33 32 31 30 28 27 27 28 29 31 31 32 36 38
27 24 15 12 18 24 20 17 15 12 12 12 11 11 11 10 9 9 9 9 8 9 10 11 10 11 12 13 12 11 10 9 10 10 9 8 9 10 12 13 15 17 17 17 17 16 15 15 16 17 18 17 17 16 17 19 19 20 21 23 23 25 27 27 29 33 35 36 36 34 33 34 33 32 32 31 29 28 28 29 30 31 31 34 37
25 23 17 16 21 28 23 19 18 15 14 14 13 13 13 12 12 11 10 9 9 10 10 10 10 11 12 13 14 12 10 9 9 9 10 10 10 11 11 13 15 16 16 16 16 15 14 15 16 16 16 16 16 15 15 16 17 19 21 22 23 23 23 23 27 32 34 35 36 35 34 34 34 33 33 33 32 30 29 29 30 31 31 33 35
24 24 22 20 24 28 23 20 19 17 16 16 14 15 15 14 14 13 11 10 10 10 10 10 10 10 12 15 15 11 9 9 10 11 12 13 13 13 14 14 15 16 16 16 15 14 13 15 16 16 15 15 15 15 15 16 17 19 21 22 22 21 19 20 24 29 32 34 36 36 34 33 33 33 33 33 33 32 32 31 30 30 32 34 35
28 27 26 23 26 27 23 21 20 18 18 17 16 17 17 15 15 14 13 12 12 11 11 12 11 11 13 15 14 10 9 11 12 13 15 15 15 15 16 16 16 16 16 16 15 14 13 14 16 17 15 14 13 14 15 16 18 20 21 22 22 19 17 19 23 27 31 33 35 36 34 32 32 32 31 30 31 32 33 33 31 31 33 35 34
31 29 28 25 26 26 24 23 21 20 20 19 19 19 18 17 16 15 13 13 13 12 12 13 13 12 13 13 12 10 11 14 16 17 17 17 17 16 16 16 16 16 16 16 16 15 14 14 16 17 17 15 14 15 17 18 20 21 22 23 22 19 17 18 21 26 30 32 34 35 34 32 32 31 29 29 29 30 32 34 34 34 33 34 35
31 29 28 27 27 27 26 24 23 23 22 22 22 21 20 19 17 16 14 14 13 13 13 13 12 11 11 11 11 12 14 16 17 18 18 19 18 16 15 15 15 16 17 17 17 16 15 15 15 17 18 16 15 17 19 20 21 21 22 23 22 19 18 18 20 25 29 32 33 33 33 33 33 32 30 28 27 27 29 34 36 37 35 34 36
30 30 29 28 27 27 26 26 26 25 25 25 24 24 23 21 18 17 16 15 14 14 14 13 12 11 11 12 13 14 15 16 18 19 18 18 17 16 14 15 15 16 18 18 17 17 16 15 16 17 17 17 17 18 19 20 21 20 22 23 22 21 20 19 21 24 27 30 32 32 33 35 36 35 33 29 26 24 25 32 38 38 38 36 36
31 31 29 28 27 27 27 27 27 27 28 28 27 26 25 23 21 19 17 16 15 15 14 14 13 12 13 14 15 15 15 17 19 19 17 16 17 16 15 15 16 17 18 18 17 16 16 16 15 16 16 17 17 17 18 20 20 20 22 23 23 23 22 20 22 26 27 29 32 34 36 36 37 37 36 31 25 22 24 32 38 38 39 39 37
31 30 29 28 28 28 28 28 28 29 29 29 29 28 27 25 23 20 19 17 15 15 15 14 14 14 14 14 14 15 16 18 20 18 17 17 17 15 14 14 15 16 17 17 16 16 16 16 15 15 16 16 15 16 18 20 20 20 21 23 24 25 23 21 23 27 29 31 33 38 40 38 36 38 38 34 26 21 21 27 35 38 39 42 39
29 29 29 30 29 29 29 29 29 29 30 31 31 30 28 27 25 22 20 18 17 17 16 16 17 17 16 15 15 16 17 19 19 18 17 17 16 14 13 14 15 16 17 17 17 17 16 16 15 14 15 15 14 16 18 21 21 21 21 23 24 25 23 21 23 26 28 29 32 39 42 39 37 39 41 39 31 22 18 22 30 35 38 41 40
25 27 27 28 28 28 28 29 30 31 31 31 29 29 28 27 26 24 21 19 19 18 17 17 19 18 18 18 18 19 20 20 20 19 18 17 15 14 13 13 15 17 18 18 19 19 17 17 16 15 15 15 14 16 19 20 20 21 21 23 24 24 22 22 23 25 25 27 31 37 41 41 40 41 42 42 38 26 17 18 23 30 36 41 43
22 23 24 24 25 25 25 27 29 31 31 29 25 25 25 25 25 23 21 21 21 21 19 19 20 21 21 21 21 21 22 21 21 19 18 17 15 14 13 14 15 17 19 21 21 19 17 17 17 15 14 13 13 15 17 17 17 19 20 22 23 23 21 21 22 23 23 26 30 35 41 43 42 43 43 43 42 31 18 17 20 24 32 41 45
13 14 16 18 20 22 24 27 29 31 31 29 27 26 26 26 25 22 20 21 22 22 21 22 23 24 24 24 23 22 22 22 21 18 17 17 16 14 14 14 15 18 21 22 21 18 17 17 17 14 13 12 12 13 14 14 15 17 19 20 21 21 21 21 22 22 22 25 29 34 42 43 42 44 45 44 43 37 22 17 19 21 26 37 43
9 9 11 13 15 17 21 25 29 30 29 29 27 24 24 26 25 24 23 24 23 22 23 25 25 25 25 24 23 22 22 21 20 18 17 17 16 14 14 14 17 20 21 20 20 19 18 17 15 13 12 11 11 12 13 13 15 17 18 18 19 20 21 21 21 20 20 22 27 34 41 43 42 43 45 44 44 41 28 16 20 21 23 30 38
7 7 8 9 11 13 16 21 24 26 27 28 25 22 23 24 25 24 26 27 26 25 25 27 27 26 25 24 22 21 21 20 19 18 18 17 16 14 14 16 19 21 20 19 19 18 16 15 14 12 11 10 10 10 12 14 15 17 17 17 17 18 18 20 20 18 17 19 25 33 39 41 42 42 43 44 45 44 31 14 19 21 20 24 31
7 10 10 10 11 13 15 19 21 23 25 26 25 24 25 26 26 26 26 26 26 24 23 25 27 26 24 23 22 20 19 19 20 20 19 18 16 15 15 18 20 19 18 18 18 16 14 13 12 9 8 7 8 10 12 14 16 16 15 14 15 16 17 20 20 18 16 17 23 31 36 38 41 42 43 45 47 47 38 17 12 21 20 22 27
10 12 12 12 13 15 16 18 19 20 22 22 22 20 20 22 24 25 23 22 23 23 23 23 25 25 24 22 20 18 17 18 20 20 20 18 16 15 17 19 19 17 16 16 15 13 11 10 7 5 5 5 7 10 12 14 14 13 12 12 14 16 16 18 19 16 14 15 21 27 31 34 39 42 44 46 48 50 47 30 4 18 22 21 24
10 12 13 14 15 16 16 15 16 16 17 17 17 16 16 17 20 21 20 19 21 23 22 22 24 25 24 21 18 17 18 18 19 20 20 18 16 16 18 19 18 16 14 13 12 10 8 5 3 3 4 5 8 11 11 11 11 11 11 11 13 15 15 16 17 16 15 15 19 24 27 31 36 40 42 44 46 49 51 44 21 5 20 23 23
11 12 13 14 15 14 13 13 14 13 13 14 14 14 15 16 17 19 19 18 19 21 21 22 23 23 23 22 21 22 22 21 19 19 19 18 17 18 18 18 17 14 12 11 9 6 4 4 5 4 5 7 9 11 10 9 9 9 10 11 13 15 16 16 17 18 18 16 17 21 25 30 35 38 41 43 44 46 51 52 41 19 5 15 17
10 10 10 10 9 9 10 12 12 12 13 14 13 13 14 15 16 16 16 16 17 19 20 22 22 21 22 24 25 24 23 21 18 17 18 18 17 17 16 15 13 10 8 7 6 4 4 6 7 6 7 9 10 8 8 8 9 9 11 12 13 15 16 17 17 18 19 18 16 17 21 26 31 35 39 42 42 44 48 51 49 41 26 15 8
7 7 6 5 6 9 11 13 13 13 14 14 13 12 11 12 13 14 15 16 17 17 18 19 20 20 20 22 20 18 17 17 16 16 17 16 14 13 13 11 9 6 4 3 4 5 7 8 8 8 8 8 7 5 6 7 9 11 12 13 14 15 15 16 17 17 19 18 16 15 17 21 26 30 34 38 39 40 44 47 49 48 44 39 32
5 5 4 4 7 11 12 13 14 14 13 13 13 11 9 10 11 12 14 15 15 15 16 17 17 18 18 16 14 12 12 13 13 13 13 11 9 10 10 7 4 4 5 6 5 7 9 9 9 8 6 5 3 4 6 8 10 12 14 14 15 14 14 14 15 16 17 17 16 15 16 17 20 24 28 33 36 37 39 42 46 47 46 44 43
4 5 5 6 9 11 12 13 14 13 11 11 11 10 9 10 10 11 12 14 15 16 16 15 15 15 15 14 12 10 9 10 10 9 9 9 9 8 7 4 4 5 7 8 8 9 10 9 8 6 4 3 4 5 7 8 10 12 13 14 14 13 11 12 13 14 14 15 15 15 15 16 17 19 22 25 29 33 36 37 39 43 43 44 45
6 5 5 6 8 11 12 13 13 13 11 10 11 11 11 10 10 10 13 15 16 17 16 14 12 12 12 12 11 10 9 9 9 9 9 9 9 8 6 6 6 6 9 11 10 10 9 8 7 5 4 4 5 6 7 7 8 10 11 11 11 11 10 11 12 13 13 13 13 14 15 15 16 17 18 19 23 28 32 33 34 38 41 41 41
8 7 7 8 10 11 12 12 12 13 13 12 12 12 11 10 10 11 12 14 15 16 15 12 9 9 10 10 9 8 7 7 6 6 6 5 5 7 9 10 10 10 10 10 9 9 8 7 6 4 4 4 5 5 5 5 6 7 8 9 10 11 11 11 12 13 13 13 12 13 14 14 15 16 15 17 20 24 27 29 30 32 35 36 36
7 6 8 9 11 12 13 12 12 13 14 14 13 14 13 12 11 11 11 12 14 15 14 11 8 9 9 9 7 5 4 3 2 2 2 4 7 9 10 12 13 12 9 8 7 7 7 6 5 3 4 4 4 4 3 3 3 5 6 8 9 10 11 12 13 13 14 14 13 13 12 13 14 15 14 14 17 19 20 23 26 27 30 32 32
8 9 11 12 11 12 13 13 12 12 13 13 14 15 15 14 13 12 11 11 12 13 13 11 10 9 8 7 5 3 2 1 1 1 2 5 8 9 10 11 12 11 9 7 6 6 6 5 4 5 5 5 4 3 3 2 1 3 4 6 8 10 11 11 12 13 14 14 14 14 14 13 13 15 15 14 15 16 16 17 20 23 24 25 27
10 11 12 12 11 11 13 13 11 11 11 11 13 14 13 12 11 10 9 8 10 11 12 11 10 9 8 6 4 4 2 1 2 3 4 5 7 8 8 8 10 10 8 7 6 6 6 5 5 6 6 4 3 2 2 1 2 3 4 6 7 9 10 11 11 12 13 14 14 14 14 14 13 14 15 15 16 16 16 15 15 16 18 20 21
9 9 10 11 11 11 11 11 10 9 9 9 10 11 10 9 8 7 6 7 9 12 13 13 11 9 5 3 3 5 5 4 5 7 7 7 7 8 7 6 5 4 3 5 7 7 6 5 4 4 4 3 2 2 2 2 4 5 6 7 9 10 11 12 12 11 12 12 13 12 13 14 14 14 14 15 16 16 16 15 14 13 14 16 17
9 10 9 9 10 11 11 10 10 9 8 7 8 8 8 7 6 6 6 6 7 10 13 12 10 7 5 5 6 8 8 6 7 9 9 8 8 7 6 5 3 1 2 5 7 7 7 6 4 3 3 3 4 4 4 5 7 8 9 10 10 10 11 12 11 11 10 10 10 11 11 12 13 13 13 13 15 16 15 15 15 14 13 13 13
11 11 10 10 11 12 12 10 8 7 6 6 6 7 7 6 6 7 7 5 4 6 8 8 8 7 8 8 9 8 5 7 8 7 8 9 8 6 5 5 6 6 5 6 6 7 7 6 5 4 3 4 5 6 7 8 10 10 10 10 10 9 9 9 9 9 8 8 8 9 10 12 13 13 13 13 13 14 14 15 15 14 14 13 12
12 12 10 9 8 9 9 7 5 5 5 5 5 6 6 5 5 6 6 5 4 4 4 6 6 8 9 9 8 6 5 9 10 9 9 9 8 8 6 5 7 9 8 5 6 7 6 5 5 4 4 5 6 7 8 9 10 10 9 8 8 7 6 6 7 8 7 7 7 8 8 11 12 13 12 12 12 12 13 14 14 14 14 13 13
12 11 8 6 6 7 7 6 5 5 4 4 4 4 4 4 6 7 7 5 4 6 6 5 6 8 10 10 8 5 8 11 10 9 8 8 7 8 7 6 5 8 8 5 4 5 4 3 4 5 5 6 7 7 8 8 8 8 7 6 6 7 6 6 6 7 7 7 8 8 8 10 12 12 12 13 13 12 12 13 14 14 14 14 13
8 6 5 5 6 6 6 5 5 4 4 4 4 4 6 7 6 6 7 6 5 7 7 7 7 9 11 10 7 6 9 10 11 10 9 8 7 7 6 4 3 5 5 4 3 3 4 5 5 5 7 7 6 5 5 5 6 6 5 5 6 7 7 7 7 8 8 9 9 9 9 12 13 12 12 13 14 14 14 14 14 14 13 14 14
4 2 2 3 3 2 2 3 2 1 2 4 4 5 7 8 7 7 8 8 8 7 8 7 7 8 10 8 5 4 5 7 10 11 11 9 6 2 0 2 4 3 2 2 2 2 4 6 6 5 6 6 4 3 3 3 4 4 5 6 7 7 7 8 8 9 9 10 9 9 11 13 14 13 12 13 14 16 17 17 16 15 13 13 14
3 3 3 3 2 1 2 2 1 0 1 3 4 4 5 7 8 8 7 7 6 6 6 6 7 9 9 8 6 6 8 9 6 6 7 5 3 5 6 4 4 4 2 3 5 6 6 6 5 4 4 3 2 3 3 2 3 5 5 6 7 7 8 8 9 8 9 10 9 9 10 12 13 13 12 12 13 15 17 18 18 17 15 13 13
2 4 5 5 4 4 5 6 4 3 4 5 7 9 9 8 7 5 4 4 5 5 5 6 7 8 8 8 7 9 10 7 2 2 1 0 3 6 3 2 5 6 5 7 9 9 6 3 2 3 2 1 1 2 2 3 3 4 5 6 6 7 7 7 7 8 8 8 9 8 9 10 11 12 11 10 11 13 14 16 17 18 16 14 13
3 3 4 5 4 4 7 9 8 7 7 8 10 11 10 9 7 5 5 6 7 7 7 7 8 8 9 10 11 10 8 5 2 1 2 2 5 7 6 6 8 9 8 8 7 7 5 3 2 3 2 2 2 2 2 3 3 3 4 4 5 5 6 6 7 7 7 7 8 7 7 8 9 10 10 10 10 11 12 13 15 16 16 16 15
3 4 5 7 7 6 6 10 11 10 9 8 8 7 7 7 7 6 6 7 8 7 6 6 9 12 12 11 9 5 2 2 3 3 3 3 5 7 7 7 10 12 12 8 5 5 4 3 3 4 1 2 4 3 2 2 2 2 3 3 4 4 5 5 6 6 6 7 7 7 6 7 7 8 9 9 9 9 9 10 12 13 14 15 16
4 6 7 7 8 9 9 11 12 12 12 11 10 9 9 9 8 8 9 10 10 8 5 4 6 10 12 10 7 5 4 4 3 4 4 5 7 7 7 7 11 14 13 9 5 3 3 2 3 5 4 2 2 2 2 3 3 2 2 2 3 3 4 4 5 6 6 6 7 6 6 6 6 6 7 8 7 7 8 8 9 10 12 14 14
5 7 7 7 5 7 8 8 9 9 10 10 10 10 10 10 10 10 11 12 10 8 6 6 6 7 9 10 10 10 10 9 7 7 8 10 12 12 11 8 9 12 11 7 4 3 3 2 4 7 7 6 5 5 6 7 7 6 5 4 3 3 3 3 4 5 5 5 6 6 5 6 6 5 6 7 6 6 7 9 8 9 10 11 12
Wind_Direction
217 216 216 219 222 231 244 252 258 264 265 267 272 276 277 273 287 326 322 317 319 320 323 333 337 338 341 342 339 338 338 336 324 306 296 301 307 311 315 316 311 305 306 311 310 307 311 310 299 295 302 307 316 324 331 340 349 357 359 354 350 344 335 332 329 325 325 323 317 312 306 298 289 283 281 274 263 258 259 260 261 264 263 259 256
219 215 211 215 221 228 239 245 247 251 257 263 275 284 276 237 61 327 315 308 306 307 310 319 325 327 333 332 327 326 329 332 330 318 297 294 300 301 305 310 308 304 303 304 303 305 310 309 302 297 296 299 307 313 320 331 341 350 357 356 351 348 343 337 334 330 327 327 325 320 315 307 292 282 281 279 271 263 259 256 254 258 261 260 258
221 213 205 209 219 227 240 249 248 249 257 263 273 281 285 36 16 315 300 297 300 303 304 310 315 317 321 322 319 319 321 322 324 321 304 293 296 298 302 308 309 309 309 306 304 306 308 307 304 302 298 294 297 304 312 322 332 341 350 353 349 345 343 339 335 331 327 327 327 324 320 315 299 283 279 280 276 269 262 255 251 252 254 256 257
221 210 199 206 219 227 241 252 252 257 261 261 265 274 304 340 317 290 282 282 286 287 288 293 300 303 308 314 315 315 313 311 315 318 309 298 300 302 304 309 312 313 311 309 307 305 303 301 301 301 299 293 293 299 305 313 323 329 334 339 342 341 339 336 334 331 323 322 327 326 320 316 306 288 278 279 278 273 266 258 253 252 252 252 253
217 207 200 213 222 227 245 255 251 252 250 250 256 255 267 277 269 262 260 263 266 266 271 277 282 290 299 306 308 306 303 301 306 312 312 305 304 306 310 312 313 314 315 312 308 305 304 302 300 301 298 292 291 295 299 308 317 320 320 324 330 333 335 334 332 330 323 320 325 325 319 316 311 296 279 276 279 277 271 264 257 254 253 252 252
214 208 209 220 221 225 254 256 246 242 239 247 261 252 247 248 249 251 256 262 265 267 272 277 278 282 287 290 290 289 289 293 300 307 313 314 308 305 313 316 314 316 317 316 313 311 311 309 305 299 292 289 289 290 293 302 312 315 314 317 322 325 330 333 331 329 326 324 327 326 321 319 315 302 285 276 277 277 274 268 261 256 253 253 252
211 207 216 225 224 230 250 245 242 246 244 253 264 261 259 258 260 265 267 269 270 269 271 273 273 276 280 281 280 279 281 287 295 303 309 314 313 309 314 316 315 318 319 319 319 316 312 307 301 296 295 297 295 290 289 295 304 310 314 317 319 320 325 330 330 328 328 327 327 327 324 321 317 306 291 280 275 271 270 269 265 257 252 250 250
205 202 214 223 228 236 239 232 239 246 242 247 250 252 263 267 270 271 270 270 268 268 272 276 279 285 288 289 289 286 286 290 296 301 303 307 312 314 315 316 319 323 322 321 319 313 308 306 303 304 307 307 302 295 292 294 299 309 317 318 318 318 322 326 328 329 330 327 327 328 325 321 318 311 299 290 282 272 267 268 267 262 255 251 250
199 199 210 223 231 236 236 231 233 230 229 239 241 243 256 263 267 270 271 273 274 277 285 287 289 294 299 306 308 302 297 296 296 298 299 303 308 313 317 321 323 324 321 319 317 312 310 309 308 309 309 306 301 297 295 296 301 310 317 316 316 318 320 324 329 332 332 329 327 327 323 319 318 315 307 299 291 280 271 269 269 266 262 258 253
195 195 205 228 234 231 236 238 231 225 228 234 236 241 249 254 263 274 280 284 286 286 288 287 289 296 304 310 311 306 304 305 303 306 309 311 313 315 316 316 319 320 318 319 319 317 314 311 309 308 307 305 302 297 295 296 302 311 313 312 315 318 320 325 334 337 335 332 329 325 320 316 316 316 310 304 297 284 274 271 271 270 266 262 258
191 193 211 252 238 229 236 238 229 228 232 233 234 239 244 249 257 268 274 281 285 284 287 289 291 296 301 306 310 311 312 312 313 317 322 322 318 311 307 309 316 319 318 319 321 322 320 317 315 312 311 311 307 300 296 297 303 308 308 309 315 318 321 329 338 338 335 333 330 326 321 317 315 314 310 306 301 290 278 272 272 271 268 263 260
193 205 239 269 238 227 234 232 227 230 233 234 238 241 245 250 256 262 267 273 278 281 288 294 293 293 295 301 307 308 306 309 312 312 310 310 308 300 298 307 315 318 318 318 320 323 325 325 324 321 318 317 313 308 303 302 305 306 306 309 315 318 323 334 338 337 335 332 330 328 326 321 316 312 308 304 300 292 281 271 267 269 269 264 261
209 224 254 261 229 224 230 226 225 231 232 235 240 241 245 249 253 260 264 266 270 278 289 291 287 286 288 292 298 300 302 306 303 297 297 299 301 297 293 298 306 312 316 317 316 320 325 327 328 327 324 320 317 314 310 307 308 308 307 311 316 318 325 337 341 340 338 334 331 329 327 323 317 310 305 301 295 289 281 270 262 264 266 264 261
219 234 255 248 223 223 229 225 227 234 235 237 238 240 244 247 251 258 261 262 266 272 280 282 279 280 283 288 290 291 294 293 288 290 295 298 300 297 293 293 297 303 310 313 312 314 319 324 328 331 329 325 323 320 314 312 313 312 312 315 317 319 325 336 341 342 341 338 334 331 328 324 319 314 309 303 294 286 279 269 259 258 262 262 262
227 241 249 238 226 229 232 231 233 237 238 239 238 240 244 244 247 253 255 261 266 269 273 276 274 275 281 289 291 287 286 284 285 291 295 297 300 299 297 296 295 299 306 310 311 312 313 317 326 332 332 328 328 324 318 316 317 315 315 318 318 317 323 333 340 343 343 340 336 334 333 331 329 324 317 308 299 288 278 269 259 254 257 260 260
234 242 239 233 232 235 236 237 241 243 244 243 240 242 245 245 247 249 251 256 262 266 271 273 274 278 285 293 292 287 285 284 285 291 295 298 302 302 301 297 292 297 307 311 312 310 308 312 323 330 330 326 324 320 315 315 317 316 318 319 317 314 318 326 336 343 344 341 336 337 339 340 338 334 327 316 304 291 278 270 260 251 248 253 256
236 237 235 236 239 241 242 244 246 247 248 246 245 247 246 245 246 245 246 252 257 263 271 273 274 277 279 283 283 281 282 282 285 292 297 302 306 306 303 298 292 299 308 311 311 308 306 312 319 323 326 324 318 313 310 312 315 317 318 318 315 312 315 322 330 338 341 340 336 335 336 340 342 340 336 326 312 299 282 267 259 251 243 243 249
234 233 235 241 246 249 251 251 252 252 252 252 252 252 249 247 246 245 246 249 253 260 268 271 273 274 274 275 275 276 280 282 286 293 301 307 310 309 304 296 293 301 308 310 310 307 306 311 313 315 321 320 313 309 309 312 315 317 318 316 313 313 317 323 329 334 335 336 337 337 336 338 342 342 340 335 320 306 287 264 255 251 241 234 238
231 232 238 244 249 253 256 257 258 257 257 258 257 254 253 250 247 245 246 249 252 258 263 264 267 271 274 272 268 267 271 277 285 293 300 305 309 310 304 296 295 304 311 313 313 310 308 308 306 310 318 316 309 308 310 312 314 316 317 316 316 317 319 322 327 330 332 334 341 345 343 343 345 345 345 342 328 309 289 263 250 247 240 230 230
233 235 240 245 250 256 259 259 259 260 262 263 260 258 257 254 249 248 248 249 251 254 256 258 261 267 270 265 257 256 261 271 282 289 293 300 306 307 300 293 296 307 313 316 317 313 309 306 302 306 314 311 308 310 310 309 311 315 317 317 318 318 316 317 322 325 330 336 342 346 347 347 348 348 347 347 339 318 289 261 247 244 238 227 225
236 239 244 250 255 260 263 265 268 269 266 263 259 256 254 251 248 247 249 253 255 253 251 251 254 257 258 256 255 256 261 272 282 284 287 296 302 302 297 292 297 307 312 315 315 312 308 304 300 304 311 309 309 312 311 309 309 312 316 318 318 315 310 312 319 322 329 339 343 346 350 350 350 350 349 349 346 331 295 263 249 243 236 225 221
237 243 249 256 260 264 271 274 273 266 257 252 252 254 254 252 250 249 253 258 258 252 245 245 249 253 256 259 262 262 265 275 283 282 285 294 299 300 298 294 296 303 308 312 313 309 304 300 298 304 310 308 310 312 310 309 310 312 316 319 318 317 311 309 315 320 330 341 344 351 356 353 350 352 352 351 350 342 308 265 252 243 234 225 220
235 246 254 261 267 271 274 271 262 257 255 255 256 260 261 259 259 261 261 258 255 251 248 248 252 257 261 265 266 266 269 277 280 279 283 292 297 297 296 293 296 302 308 313 313 307 302 299 299 307 310 305 307 309 307 310 313 314 317 320 322 324 318 312 313 318 328 339 347 356 1 356 352 355 356 354 353 348 324 271 248 242 234 226 222
233 250 256 264 273 276 273 263 258 260 264 261 260 265 266 263 262 264 263 260 259 259 260 261 260 259 264 271 272 271 273 275 274 275 280 287 292 293 293 295 302 308 312 314 309 304 301 300 303 309 309 303 302 303 306 312 315 316 318 320 324 328 325 323 325 323 325 337 351 1 4 358 355 359 1 359 358 354 337 284 244 237 233 226 224
253 272 272 271 277 278 274 268 266 269 270 269 272 279 280 274 269 268 269 269 267 264 268 273 270 265 271 281 281 274 273 274 272 271 274 279 285 289 293 302 310 314 314 309 303 301 301 302 306 309 304 298 296 299 307 313 315 319 324 324 328 334 338 343 346 340 334 344 358 6 6 360 358 4 7 4 3 2 353 306 240 230 229 227 226
307 311 307 298 293 288 281 277 276 277 279 284 290 293 291 286 280 278 279 277 271 269 273 276 273 271 278 286 283 275 275 276 272 269 271 276 283 287 295 306 312 313 309 302 299 299 299 301 306 304 295 293 294 298 306 311 315 325 334 336 341 346 349 354 357 353 349 353 2 10 11 2 359 7 13 11 9 9 9 354 241 221 221 224 225
306 305 302 298 298 297 291 286 284 284 286 291 297 300 300 294 283 279 280 275 269 272 277 275 273 276 282 286 282 276 272 269 267 269 274 278 282 288 297 306 311 311 305 298 294 294 297 300 301 291 284 291 296 299 306 312 320 333 344 348 354 356 355 359 1 359 357 357 3 12 13 4 359 5 14 16 14 14 18 20 328 217 215 219 224
293 295 294 294 297 298 299 298 298 296 293 295 299 302 302 295 283 277 278 276 275 278 278 273 273 277 281 282 278 269 263 262 264 270 274 273 276 286 296 304 310 309 303 296 293 294 297 291 270 259 268 282 293 300 307 315 327 341 350 357 2 1 359 1 3 2 1 360 2 8 11 8 5 6 11 16 17 18 23 29 32 210 214 216 221
279 281 282 287 293 298 302 303 303 300 296 298 301 301 297 292 284 279 281 283 284 284 279 273 273 276 276 274 268 259 256 258 261 263 261 261 270 284 295 302 306 304 299 295 294 292 274 244 231 239 260 278 293 304 311 320 332 344 354 1 3 2 1 2 4 6 5 1 0 3 7 12 13 11 12 15 19 23 27 30 35 44 185 213 220
265 268 272 278 282 287 290 292 295 296 294 295 295 291 285 281 279 280 285 286 283 282 279 276 275 275 274 272 269 263 258 257 255 250 248 254 268 283 292 298 299 296 291 286 276 246 221 227 234 245 268 287 300 311 321 329 336 345 355 1 1 1 3 3 5 9 9 6 1 358 4 14 19 18 16 14 18 26 29 29 33 41 47 49 48
272 280 284 280 269 269 274 279 285 289 292 295 292 282 273 271 274 281 286 285 281 279 277 276 276 277 275 272 266 256 247 244 243 243 247 256 269 282 289 291 289 279 254 231 228 226 224 232 245 262 281 294 303 318 335 340 338 340 348 355 358 359 2 4 5 7 10 14 9 357 0 15 21 23 22 17 16 25 31 29 30 36 40 43 44
300 302 294 273 265 267 271 279 286 290 295 298 294 283 272 269 276 282 282 281 280 277 275 276 276 275 275 273 265 251 242 243 246 249 253 259 270 280 284 281 265 227 206 203 219 235 239 248 266 281 287 289 299 327 341 341 339 338 341 347 353 355 359 3 3 1 6 15 14 3 2 11 16 21 26 23 18 22 30 31 30 30 34 39 42
297 288 276 267 267 265 266 272 278 283 288 289 286 283 281 281 285 284 278 276 278 280 281 281 278 276 276 276 275 272 265 261 260 259 258 262 271 277 270 242 205 197 202 210 228 241 249 263 279 285 280 281 301 322 331 334 337 337 338 342 350 355 358 0 0 359 4 13 17 12 10 10 10 16 23 24 22 24 27 30 31 29 29 32 36
279 270 263 263 264 262 263 265 267 268 269 271 274 280 287 289 288 284 283 282 280 281 284 285 283 282 279 275 274 274 272 271 269 267 266 269 271 260 229 191 184 201 212 220 231 243 254 270 283 284 282 299 316 326 328 330 333 335 337 343 354 1 3 3 2 0 2 7 12 16 16 14 15 20 21 21 25 29 27 24 28 32 31 29 30
269 260 249 247 251 256 260 262 264 265 267 271 277 281 284 287 285 281 283 283 278 276 280 284 283 280 274 272 275 278 276 272 265 261 263 254 233 225 211 191 189 204 216 221 232 250 267 279 285 286 293 310 320 318 316 323 336 343 346 353 0 4 7 9 8 6 4 3 5 12 19 20 22 28 31 27 28 32 29 22 23 31 35 31 27
249 238 236 239 245 253 258 259 262 268 272 276 281 283 283 286 287 281 276 273 268 267 269 271 274 274 269 269 275 270 254 242 219 208 223 211 207 215 214 202 199 205 213 222 239 261 277 284 281 275 282 294 296 291 290 314 356 6 2 359 0 3 7 10 10 10 10 9 6 8 15 21 25 30 37 37 32 32 31 26 24 29 34 33 30
238 232 237 242 246 256 265 268 269 274 279 282 283 284 284 286 287 282 275 266 258 257 259 262 268 270 262 258 257 239 221 236 239 194 208 215 215 217 216 216 219 225 228 235 249 262 270 271 264 263 268 267 260 259 272 292 0 23 15 4 359 360 3 6 6 7 10 12 12 10 12 18 24 27 32 38 36 33 32 31 30 31 33 33 32
255 249 248 248 251 259 268 273 278 283 286 285 283 281 282 284 285 282 275 263 251 249 249 249 253 256 250 240 230 222 226 285 274 237 226 222 228 235 238 237 243 248 244 235 233 243 254 254 248 249 255 254 242 242 265 306 345 3 3 358 352 350 349 352 355 357 359 5 11 14 15 18 22 23 26 34 37 35 32 33 33 34 35 33 31
267 266 262 259 260 264 269 277 285 287 285 285 284 279 275 276 274 264 258 260 253 245 239 236 240 248 254 253 255 266 276 269 240 232 232 228 235 253 268 270 273 279 250 212 211 227 250 259 251 242 242 252 259 252 263 317 333 337 339 338 337 336 334 334 339 344 348 355 4 13 19 23 24 23 22 28 35 36 35 35 33 32 34 33 32
262 264 264 266 269 273 277 282 285 282 277 279 277 266 256 255 253 251 260 272 261 246 240 238 242 254 268 285 299 300 288 256 228 230 240 241 242 252 261 260 260 256 161 189 206 224 243 250 246 236 239 261 281 288 305 327 331 331 331 330 328 327 324 321 325 334 341 349 359 9 18 23 24 23 22 25 31 34 36 37 37 35 36 38 38
248 253 259 266 271 275 277 278 276 273 270 267 259 246 238 234 235 246 261 269 254 240 234 231 236 252 265 281 304 310 273 218 205 219 238 246 250 252 247 238 229 213 195 198 213 226 237 241 236 236 254 272 289 307 323 330 330 331 332 331 330 329 326 323 328 337 346 356 4 11 21 25 22 20 20 21 24 28 32 36 38 39 41 45 46
248 256 263 265 263 264 265 264 261 260 257 252 246 243 240 230 217 220 230 234 232 231 222 217 234 258 273 291 314 314 233 205 202 217 236 246 250 250 252 257 242 225 217 222 228 227 232 239 238 245 265 282 299 316 324 323 325 334 342 341 343 349 352 351 353 355 0 13 19 19 27 34 30 23 22 22 21 20 24 30 35 38 41 46 50
254 257 254 240 236 247 256 259 259 252 234 221 219 213 193 174 171 178 185 198 234 254 255 251 259 273 288 307 318 287 227 213 210 217 229 237 242 248 263 281 255 220 209 213 227 227 234 257 261 261 273 285 298 313 318 317 328 349 2 3 7 17 23 25 25 19 17 29 35 33 39 47 42 33 30 33 31 26 24 27 31 35 39 43 48
251 244 225 216 229 249 256 254 250 244 227 219 209 177 158 157 166 180 189 198 223 250 261 270 278 286 299 310 302 246 223 222 220 220 226 235 245 260 275 276 219 193 188 188 195 209 233 259 270 273 278 286 301 321 326 327 348 14 29 34 34 34 34 40 43 35 28 33 39 41 49 54 49 40 40 44 43 40 37 36 33 33 36 42 46
240 232 224 239 250 263 254 235 235 280 260 239 229 203 182 184 199 217 227 229 232 245 260 275 288 297 304 307 288 246 251 260 246 232 231 238 239 242 49 128 142 147 176 224 239 253 258 264 273 278 278 290 325 23 26 358 13 37 47 49 50 47 42 44 45 37 32 34 36 42 52 56 49 42 45 53 53 50 46 43 41 39 39 44 49
207 182 184 211 223 230 238 232 234 1 256 237 244 252 248 240 236 234 235 236 234 237 252 279 298 294 286 285 290 303 313 310 275 222 220 226 177 116 91 100 140 153 205 273 289 296 284 270 273 279 276 291 359 54 64 40 38 48 48 46 49 47 43 41 39 35 36 36 31 32 46 54 50 44 44 54 60 58 51 47 45 45 47 51 56
192 176 183 204 227 246 244 239 235 234 241 257 270 277 284 282 267 236 215 225 236 237 241 259 278 275 262 262 285 307 320 328 350 131 116 49 140 132 121 178 192 201 246 282 288 289 286 267 250 254 246 232 53 69 74 61 48 45 39 32 32 35 38 37 30 27 31 32 25 20 27 41 46 44 41 47 57 59 55 51 49 49 52 56 59
213 203 202 217 245 265 248 237 242 255 267 273 275 275 278 280 271 248 235 242 251 263 267 253 242 245 256 270 282 294 311 320 305 123 77 87 156 167 179 200 208 228 261 277 274 271 274 271 250 242 201 139 137 134 87 61 46 38 32 24 14 13 20 26 23 16 18 23 22 15 13 24 34 36 34 37 47 51 53 55 54 53 56 60 60
237 268 257 250 270 291 264 238 245 267 282 282 277 277 276 265 244 230 233 235 237 256 278 258 228 228 243 259 268 270 283 293 259 211 181 190 194 187 191 209 230 249 266 269 248 235 235 229 240 257 249 118 124 129 91 45 25 12 10 9 1 356 1 9 8 3 4 12 14 10 9 18 26 25 21 26 37 42 44 51 57 59 60 62 61
262 283 272 260 278 297 283 253 251 268 282 280 273 272 274 267 247 226 221 225 230 240 256 251 229 227 228 227 227 222 214 220 226 211 210 231 241 239 239 235 237 246 257 262 253 233 219 209 246 276 294 337 69 84 40 7 353 346 345 344 345 345 347 350 351 348 350 357 360 360 8 24 30 20 10 14 26 29 27 35 52 62 63 63 62
296 276 252 236 255 290 287 260 248 258 269 270 266 261 260 262 256 238 226 225 229 231 224 219 231 242 238 231 235 240 235 229 231 235 236 240 249 259 267 257 233 234 243 248 242 240 251 272 283 288 299 318 335 348 353 347 343 344 347 341 334 337 340 337 335 333 335 341 346 350 2 19 25 20 13 15 19 16 14 22 45 66 70 66 64